Regional Weather Roundup
Issued by NWS

Home | Current Version | Previous Version | Text Only | Print | Product List | Glossary On
Versions: 1 2 3 4 5 6 7 8 9 10 11 12 13 14 15 16 17 18 19 20 21 22 23 24 25 26 27 28 29 30 31 32 33 34 35 36 37 38 39 40 41 42 43 44 45 46 47 48 49 50
000
ASUS43 KDTX 022101
RWRMI
MICHIGAN HOURLY REGIONAL WEATHER ROUNDUP
NATIONAL WEATHER SERVICE DETROIT/PONTIAC MI
400 PM EST MON MAR 02 2015

NOTE: "FAIR" INDICATES FEW OR NO CLOUDS BELOW 12,000 FEET WITH NO
SIGNIFICANT WEATHER AND/OR OBSTRUCTION TO VISIBILITY.

MIZ047>049-052>055-059>063-066>070-074>076-081>083-022200-
SOUTHEAST LOWER MICHIGAN

CITY           SKY/WX    TMP DP  RH WIND       PRES   REMARKS
ADRIAN         SUNNY     30  14  51 NW6       30.44F WCI  24
ALMA           SUNNY     30  11  45 W8        30.41S WCI  22
ANN ARBOR      SUNNY     29  12  49 W10       30.42S WCI  20
BAD AXE        SUNNY     26  11  54 W12       30.41S WCI  15
CARO           MOSUNNY   28  13  52 W8        30.41S WCI  20
DETROIT CITY   SUNNY     33   9  36 NW7       30.42S WCI  27
DETROIT        PTSUNNY   32  12  43 W12       30.43F WCI  23
FLINT          SUNNY     30  12  47 W12       30.42F WCI  20
GROSSE ILE     SUNNY     30  14  51 SW10      30.41F WCI  21
HILLSDALE      SUNNY     28  13  54 NW9       30.41S WCI  19
HOWELL         SUNNY     29  12  48 W10       30.40F WCI  19

CITY           SKY/WX    TMP DP  RH WIND       PRES   REMARKS
JACKSON        SUNNY     29  13  51 SW13      30.40F WCI  19
LAMBERTVILLE   SUNNY     32  16  51 W9        30.45S WCI  24
LANSING        SUNNY     29  12  49 W13       30.42F WCI  19
LAPEER         FAIR      28   9  44 W7        30.41S WCI  21
MASON          SUNNY     30  12  48 W7        30.41F WCI  23
MONROE         SUNNY     28  16  59 SW10      30.43S WCI  19
MT. CLEMENS    MOSUNNY   30  10  42 W12       30.40S WCI  21
PONTIAC        MOSUNNY   28  10  46 W13       30.39F WCI  17
PORT HOPE        N/A     27   9  46 VRB7      30.39S WCI  19
PORT HURON     SUNNY     28  10  47 W6        30.43R WCI  22
TRI CITIES     SUNNY     29  11  47 SW15      30.41F WCI  18
TROY           SUNNY     33   6  32 W6        30.43F WCI  27
SAGINAW HB     SUNNY     32  12  43 W9        30.41F WCI  24
$$
MIZ043>046-050>051-056>058-064>065-071>073-077>080-022200-
SOUTHWEST LOWER MICHIGAN

CITY           SKY/WX    TMP DP  RH WIND       PRES   REMARKS
BATTLE CREEK   SUNNY     31  13  47 W10       30.42F WCI  22
BENTON HARBOR  SUNNY     25  17  72 VRB5      30.46F WCI  19
BIG RAPIDS     SUNNY     30   7  37 W7        30.38S WCI  24
COLDWATER      SUNNY     29  13  52 W7        30.43S WCI  22
FREMONT        FAIR      29   9  43 W7        30.42S WCI  22
HOLLAND        MOSUNNY   28  14  55 W10       30.46S WCI  19
GRAND RAPIDS   MOSUNNY   27  14  58 W13       30.43S WCI  16
IONIA          FAIR      30  15  52 SW14      30.41S WCI  19
KALAMAZOO      SUNNY     29  15  56 W12       30.43F WCI  19
LUDINGTON      MOSUNNY   25  11  57 W5        30.44F WCI  19
MARSHALL       SUNNY     29  14  53 W8        30.41F WCI  21
MOUNT PLEASANT SUNNY     30   8  39 W3        30.40S
MUSKEGON       MOSUNNY   26  12  55 SW9       30.46S WCI  17
SOUTH HAVEN    SUNNY     28  16  60 W6        30.46S WCI  21
$$
MIZ016>042-022200-
NORTHERN LOWER MICHIGAN

CITY           SKY/WX    TMP DP  RH WIND       PRES   REMARKS
ALPENA         SUNNY     28   3  34 W8        30.36S WCI  20
BEAVER ISLAND  SUNNY     22   7  52 SW9       30.39F WCI  12
BELLAIRE       SUNNY     25   5  42 NW3       30.42S
CADILLAC       SUNNY     26   4  38 W6        30.35S WCI  20
CHARLEVOIX     SUNNY     21   8  56 CALM      30.44S
FRANKFORT      SUNNY     24  11  59 CALM      30.43S
GAYLORD        SUNNY     22   0  38 W9G16     30.34F WCI  12
GRAYLING       SUNNY     26   0  33 W12       30.36S WCI  15
HARBOR SPRINGS SUNNY     21   9  59 W9        30.40S WCI  11
HOUGHTON LAKE  SUNNY     26   4  38 W9        30.36F WCI  17
MANISTEE       SUNNY     23   7  50 W7        30.44F WCI  15
OSCODA         SUNNY     31   5  33 NW5       30.37S WCI  26
PELLSTON       SUNNY     22   7  52 W12       30.39S WCI  10
ROGERS CITY    SUNNY     26   6  42 W10       30.38S WCI  16
TRAVERSE CITY  MOSUNNY   25   5  42 NW7       30.40S WCI  17
$$
MIZ007>008-015-022200-
EASTERN UPPER MICHIGAN

CITY           SKY/WX    TMP DP  RH WIND       PRES   REMARKS
KINROSS        SUNNY     21  10  63 N12       30.35S WCI   9
MACKINAC ISLAN SUNNY     22  10  61 SW12G18   30.37R WCI  10
NEWBERRY       SUNNY     22   2  42 W8        30.36R WCI  12
S. S. MARIE    SUNNY     19   6  57 NW14      30.36S WCI   6
MUNISING         N/A     21  10  62 NE9       30.37F WCI  11
$$
MIZ004>006-011>014-085-022200-
CENTRAL UPPER MICHIGAN

CITY           SKY/WX    TMP DP  RH WIND       PRES   REMARKS
MANISTIQUE     SUNNY     24   7  48 S9        30.36S WCI  15
ESCANABA       SUNNY     25  12  58 S17       30.37S WCI  11
MENOMINEE      SUNNY     27  10  50 SW14      30.37F WCI  15
SAWYER-GWINN   SUNNY     27   0  31 CALM      30.29F
$$
MIZ001>003-009>011-084-022200-
WESTERN UPPER MICHIGAN

CITY           SKY/WX    TMP DP  RH WIND       PRES   REMARKS
IRON MOUNTAIN  SUNNY     29   4  34 SW5       30.29F WCI  24
HOUGHTON       SUNNY     22   6  50 W14       30.29F WCI   9
COPPER HARBOR    N/A     21  11  65 N16       30.32F WCI   7
IRONWOOD       SUNNY     27   3  36 W9        30.23F WCI  17
$$

ABBREVIATIONS USED IN REMARKS
   TC - TEMPERATURE IN CELSIUS
  WCI - WIND CHILL INDEX
   HX - HEAT INDEX
  VSB - VISIBILITY




USA.gov is the U.S. government's official web portal to all federal, state and local government web resources and services.